SCP
0 -0 -0 -0 -0 -0 -0 -0 -0 -0 -0 0 0 0 0 0 0 0 0 0 0 0 0 0 0 0 0 0 0 0 0 0 -0 -0 -0 -0 -0 0 0 0 0 0 0
0 0 -0 -0 -0 -0 -0 -0 -0 -0 -0 0 0 0 0 0 0 0 0 0 0 0 0 0 0 0 0 0 0 0 0 0 0 0 -0 0 0 0 0 0 0 0 0
0 0 0 -0 -0 -0 -0 -0 -0 -0 -0 0 0 0 0 0 0 0 0 0 0 0 0 0 0 0 0 0 0 0 0 0 0 0 -0 -0 0 0 0 0 0 0 0
0 0 0 0 0 -0 -0 -0 -0 -0 0 0 0 0 0 0 0 0 0 0 0 0 0 0 0 0 0 0 0 0 0 0 0 0 0 0 0 0 0 0 0 0 0
0 0 0 0 0 0 0 0 0 0 0 0 0 0 0 0 0 0 0 0 0 0 0 0 0 0 0 0 0 0 0 0 0 0 -0 0 0 0 0 0 0 0 0
0 0 0 0 0 0 0 0 0 0 0 0 0 0 0 0 0 0 0 0 0 0 0 0 0 0 0 0 0 0 0 0 0 0 0 0 0 0 0 0 0 0 0
0 0 0 0 0 0 0 0 0 0 0 0 0 0 0 0 0 0 0 0 0 0 0 0 0 0 0 0 0 0 0 0 0 0 0 0 0 0 0 -0 0 0 0
0 0 0 0 0 0 0 0 0 0 0 0 0 0 0 0 0 0 0 0 0 0 0 0 0 0 0 0 0 0 0 0 0 0 0 0 0 0 0 0 0 0 0
0 0 0 0 0 0 0 0 0 0 0 0 0 0 0 0 0 0 0 0 0 0 0 0 0 0 0 0 0 0 0 0 0 0 0 0 0 0 0 0 -0 -0 0
0 0 0 0 0 0 0 0 0 0 0 0 0 0 0 0 0 0 0 0 0 0 0 0 0 0 0 0 0 0 0 0 0 0 0 0 0 0 0 0 0 0 0
0 0 0 0 0 0 0 0 0 0 0 0 0 0 0 0 0 0 0 0 0 0 0 0 0 0 0 0 0 0 0 0 0 0 0 0 0 0 0 0 0 0 0
0 0 0 0 0 0 0 0 0 0 0 0 0 0 0 0 0 0 0 0 0 0 0 0 0 0 0 0 0 0 0 0 0 0 0 0 0 0 0 0 0 0 0
0 0 0 0 0 0 0 0 0 0 0 0 0 0 0 0 0 0 0 0 0 0 0 0 0 0 0 0 0 0 0 0 0 0 0 0 0 0 0 0 0 0 0
0 0 0 0 0 0 0 0 0 0 0 0 0 0 0 0 0 0 0 0 0 0 0 0 0 0 0 0 0 0 0 0 0 0 0 0 0 0 0 0 0 0 0
0 0 0 0 0 0 0 0 0 0 0 0 0 0 0 0 0 0 0 0 0 0 0 0 0 0 0 0 0 0 0 0 0 0 0 0 0 0 0 0 0 0 0
0 0 0 0 0 0 0 0 0 0 0 0 0 0 0 0 0 0 0 0 0 0 0 0 0 0 0 0 0 0 0 0 0 0 0 0 0 0 0 0 0 0 0
0 0 0 0 0 0 0 0 0 0 0 0 0 0 0 0 0 0 0 0 0 0 0 0 0 0 0 0 0 0 0 0 0 0 0 0 0 0 0 0 0 0 0
0 0 0 0 0 0 0 0 0 0 0 0 0 0 0 0 0 0 0 0 0 0 0 0 0 0 0 0 0 0 0 0 0 0 0 0 0 0 0 0 0 0 0
0 0 0 0 0 0 0 0 0 0 0 0 0 0 0 0 0 0 0 0 0 0 0 0 0 0 0 0 0 0 0 0 0 0 0 0 0 0 0 0 0 0 0
0 0 0 0 0 0 0 0 0 0 0 0 0 0 0 0 0 0 0 0 0 0 0 0 0 0 0 0 0 0 0 0 0 0 0 0 0 0 0 0 0 0 0
0 0 0 0 0 0 0 0 0 0 0 0 0 0 0 0 0 0 0 0 0 0 0 0 0 0 0 0 0 0 0 0 0 0 0 0 0 0 0 0 0 0 0
0 0 0 0 0 0 0 0 0 0 0 0 0 0 0 0 0 0 0 0 0 0 0 0 0 -0 -0 -0 -0 -0 0 0 0 0 0 0 0 0 0 0 0 0 0
0 0 0 0 0 0 0 0 0 0 0 0 0 0 0 0 0 0 0 0 0 0 -0 0 -0 0 -0 -0 -0 -0 -0 -0 -0 0 0 0 0 0 0 0 0 0 0
0 0 0 0 0 0 0 0 0 0 0 0 0 0 0 0 0 0 0 0 0 0 0 0 0 0 0 0 -0 -0 -0 -0 -0 -0 -0 -0 0 0 0 0 0 0 0
0 0 0 0 0 0 0 0 0 0 0 -0 -0 -0 -0 -0 0 0 0 0 0 0 0 0 0 0 0 0 0 0 0 0 0 -0 -0 0 -0 -0 0 0 0 0 0
0 0 0 0 0 0 0 0 0 0 0 -0 -0 -0 -0 -0 -0 0 0 0 0 0 0 0 0 0 0 0 0 0 0 0 0 -0 -0 0 -0 -0 -0 -0 0 0 0
Wind_Speed_500mb
10 14 18 10 15 8 7 5 4 5 6 4 4 5 4 3 2 3 7 8 7 8 7 10 11 11 11 12 13 15 19 18 18 17 14 13 7 9 10 10 9 6 6
11 11 12 7 6 5 7 0 2 4 4 5 5 2 4 5 7 6 7 9 11 12 12 12 11 13 12 11 10 12 16 17 15 14 12 9 6 2 7 7 6 9 7
9 8 9 6 4 3 4 8 8 10 8 4 2 1 3 6 8 10 12 13 14 14 14 15 17 14 14 13 11 10 13 16 15 12 10 2 1 8 12 13 12 11 9
5 9 9 6 5 8 13 13 10 10 14 11 8 8 8 6 5 8 10 12 13 15 16 15 16 16 14 16 14 12 13 14 16 14 9 7 7 12 12 12 12 14 13
4 7 8 7 8 9 10 13 12 16 13 12 16 17 16 16 15 16 16 16 15 15 15 15 15 14 15 14 17 16 16 18 18 17 11 13 11 14 15 14 15 17 17
7 10 11 12 13 14 14 15 15 15 19 20 20 19 22 23 24 23 22 26 24 22 19 17 13 17 15 16 17 19 19 22 22 17 16 19 19 19 17 16 20 20 21
8 10 14 17 19 21 23 24 23 22 22 23 24 27 27 27 27 28 30 31 30 27 27 26 21 20 19 20 16 19 24 25 28 20 22 23 25 25 23 21 22 22 22
8 11 15 18 21 24 26 28 29 28 28 28 28 30 33 32 32 29 32 33 33 33 33 32 30 30 26 22 24 27 30 32 33 27 27 29 30 30 29 27 25 22 31
10 13 15 19 22 25 28 31 32 32 32 31 30 31 33 35 35 35 35 39 37 36 39 39 36 34 33 32 30 30 31 33 33 29 32 30 35 33 35 33 31 28 32
10 13 15 17 20 22 25 28 30 32 33 33 32 30 30 32 34 33 35 38 39 37 35 35 40 37 34 34 35 38 40 41 39 35 39 37 37 36 38 39 37 34 34
13 15 16 18 20 21 22 23 24 25 26 27 29 28 27 29 30 33 36 39 41 40 38 36 34 35 38 38 38 39 40 38 33 34 37 42 43 42 40 43 42 40 39
10 12 14 16 17 18 17 18 17 17 17 18 20 22 23 24 24 26 29 32 36 38 38 39 38 36 34 36 36 37 44 40 40 37 38 47 45 46 46 44 47 46 45
6 10 12 14 15 15 15 16 15 15 14 14 14 14 14 16 19 21 23 25 27 28 31 36 39 38 43 44 46 43 46 43 43 48 45 49 43 42 46 48 48 50 50
2 4 5 7 9 11 13 15 17 18 19 20 21 19 17 15 14 15 16 19 21 23 25 26 28 33 37 36 38 38 41 42 46 49 50 50 48 44 45 47 51 53 54
1 5 7 10 11 13 15 18 19 21 23 25 25 26 25 24 24 23 21 20 20 20 21 22 25 28 30 33 37 37 38 35 35 40 49 53 54 50 51 48 49 54 60
4 6 10 12 15 17 18 20 22 23 25 25 26 28 27 27 28 28 27 27 26 26 27 26 26 25 24 27 32 36 38 39 39 37 37 36 37 41 38 43 47 54 58
12 12 13 16 19 20 23 25 27 28 28 30 32 32 32 32 32 31 30 30 30 29 28 27 26 25 25 25 25 24 28 32 33 33 34 39 39 36 36 44 42 38 46
17 17 17 18 18 20 23 24 26 27 28 31 32 34 35 36 36 37 38 38 39 37 36 35 34 32 31 29 26 24 19 17 16 17 17 23 30 37 35 40 40 45 47
19 17 16 16 16 17 20 21 22 23 24 27 28 30 31 33 34 36 37 39 40 41 43 44 45 44 42 38 30 19 15 11 9 17 17 20 25 31 35 35 38 42 47
20 17 15 14 14 15 15 17 18 19 22 23 25 27 28 30 32 33 34 35 36 38 39 40 42 44 48 47 38 26 11 6 17 31 21 23 28 32 35 37 40 42 45
22 19 16 13 12 13 12 13 16 18 21 22 23 24 26 28 30 33 34 36 38 40 43 45 46 48 49 52 49 34 19 8 21 14 26 39 41 40 39 39 40 42 44
27 23 19 16 14 13 12 13 16 18 20 21 23 24 27 30 32 35 37 39 41 43 44 47 50 52 53 58 57 28 20 11 43 20 24 41 56 51 48 50 46 45 48
31 26 22 18 16 13 12 14 16 17 20 21 22 25 28 30 32 34 36 38 40 43 46 49 50 51 49 49 51 37 17 15 42 17 31 43 62 60 59 53 53 56 51
35 31 26 21 17 14 11 12 13 14 16 18 22 25 26 28 30 32 34 36 39 40 41 44 45 46 45 45 41 39 29 26 19 27 30 32 66 65 67 56 65 56 64
40 34 29 25 20 15 11 9 10 14 17 19 21 23 24 26 28 31 33 35 36 39 40 40 41 41 40 39 39 37 34 30 21 26 40 60 57 55 64 53 63 59 72
43 40 35 30 24 19 12 7 7 11 15 17 18 20 23 26 28 31 33 34 36 37 38 38 38 37 37 35 34 33 33 30 33 29 45 56 64 64 51 53 62 63 73
Wind_Direction_500mb
12 21 50 89 70 71 66 97 121 115 93 78 58 32 17 21 29 309 302 306 308 309 304 313 297 308 326 332 352 8 16 22 28 32 45 60 48 46 52 41 72 48 13
14 22 35 58 63 32 10 11 232 186 154 110 78 323 326 324 308 290 276 280 288 289 290 298 312 288 300 309 326 343 3 12 15 22 32 50 85 331 335 323 331 323 327
356 0 13 25 46 334 324 327 258 246 227 210 231 296 297 300 299 300 296 285 277 274 274 286 302 312 280 281 287 305 342 356 357 1 4 85 205 315 308 305 311 318 315
0 1 355 342 325 304 287 277 273 282 253 251 269 276 285 273 268 274 283 291 290 289 286 272 271 291 293 274 271 276 305 329 337 336 331 316 302 325 321 324 317 326 322
347 350 351 346 336 336 331 316 302 265 267 279 259 262 268 270 270 269 271 278 284 287 287 291 283 276 289 272 271 268 285 309 317 317 301 291 295 307 318 316 311 311 318
333 330 325 319 314 312 306 305 306 301 271 263 271 273 268 267 269 271 274 280 279 274 279 277 277 286 273 276 266 261 274 293 302 302 281 279 288 289 305 302 303 296 308
332 325 318 314 309 305 302 299 295 291 287 279 269 265 268 271 269 269 270 270 274 279 277 273 261 263 265 264 273 266 275 283 293 277 280 281 280 285 291 295 296 294 295
344 332 326 318 311 305 299 296 293 290 284 280 276 272 270 265 268 273 274 277 278 278 280 278 272 264 263 261 254 262 270 280 286 279 276 284 285 280 280 284 287 284 286
346 339 331 326 323 316 307 301 296 293 289 285 279 275 275 273 270 267 272 277 282 285 283 276 273 269 266 263 261 255 258 269 274 268 273 277 287 289 277 276 279 283 277
331 331 330 329 326 322 317 310 305 298 293 289 286 282 278 274 274 271 269 273 277 283 286 289 276 270 269 268 267 264 263 262 265 270 272 275 280 287 280 274 276 278 281
324 330 336 336 335 332 328 322 316 309 301 294 291 288 282 280 276 272 271 271 274 276 280 285 288 282 271 270 272 273 275 276 273 270 269 271 280 282 282 272 271 275 276
310 323 333 339 342 344 343 341 337 329 319 310 304 295 290 288 286 284 283 279 274 274 278 277 276 280 280 278 278 280 272 271 275 273 274 277 287 284 279 276 270 272 274
306 329 336 342 349 353 358 6 10 14 12 1 349 338 326 311 300 291 287 283 284 284 279 270 270 274 275 278 279 279 277 279 277 275 277 284 285 285 285 280 275 272 274
318 335 1 15 19 23 30 35 37 38 39 38 37 32 26 13 360 342 328 317 308 302 297 293 287 279 273 275 273 276 276 276 271 273 275 282 283 287 285 283 279 276 276
56 73 70 66 61 56 52 55 53 52 50 50 47 46 43 41 38 33 25 14 3 352 339 322 307 297 292 286 281 279 276 277 276 274 272 271 273 272 272 275 279 275 274
119 100 86 80 74 67 65 62 59 56 53 50 47 45 42 40 40 39 38 35 30 23 16 7 356 345 331 312 296 291 287 280 279 279 279 280 279 274 279 278 277 275 275
143 121 107 94 83 79 75 70 67 63 60 58 55 52 50 48 46 42 38 34 28 22 16 11 7 3 357 348 336 323 303 289 282 278 277 279 278 279 281 272 267 280 284
137 128 119 107 95 83 76 71 67 63 59 56 53 50 47 45 44 43 41 39 36 33 29 27 22 17 9 357 347 346 339 323 312 300 296 289 286 281 280 279 283 281 272
149 137 124 114 103 91 80 73 68 63 60 56 52 48 44 41 39 37 36 34 31 30 27 24 22 20 20 19 12 356 348 343 12 359 333 318 310 303 297 291 284 282 283
161 147 135 123 112 98 85 76 70 63 59 55 50 46 40 37 34 33 31 30 29 28 27 26 23 21 18 17 19 17 22 13 27 354 356 349 344 336 327 321 311 302 292
173 163 150 134 121 103 91 78 68 60 56 50 47 41 36 33 30 27 25 24 23 22 21 20 20 18 15 17 19 33 28 94 350 5 9 4 360 354 349 346 343 336 323
184 177 166 154 139 123 109 89 69 57 50 45 42 37 33 29 25 23 21 21 20 19 18 17 18 19 18 17 21 15 2 359 343 26 6 7 4 3 360 357 352 346 341
191 185 177 168 155 139 115 84 65 52 45 42 38 33 30 26 23 21 19 19 18 17 17 16 16 17 18 18 20 30 1 342 342 329 346 353 357 2 3 1 359 354 350
196 192 187 180 170 151 121 92 74 62 51 44 38 33 29 25 23 20 18 17 16 16 15 15 13 13 13 14 16 20 14 357 344 325 328 341 346 354 359 359 1 0 354
201 198 195 190 182 168 143 109 71 51 42 37 34 29 24 22 19 16 14 13 13 14 13 12 12 12 11 11 10 8 4 2 346 325 325 329 338 346 347 353 359 354 353
205 203 202 198 192 184 168 137 83 48 35 31 25 20 16 13 11 10 9 9 9 8 8 7 7 6 6 6 4 2 360 357 341 340 323 328 330 336 348 337 348 349 348
Wind_Speed_850mb
10 14 18 10 15 8 7 5 4 5 6 4 4 5 4 3 2 3 7 8 7 8 7 10 11 11 11 12 13 15 19 18 18 17 14 13 7 9 10 10 9 6 6
11 11 12 7 6 5 7 0 2 4 4 5 5 2 4 5 7 6 7 9 11 12 12 12 11 13 12 11 10 12 16 17 15 14 12 9 6 2 7 7 6 9 7
9 8 9 6 4 3 4 8 8 10 8 4 2 1 3 6 8 10 12 13 14 14 14 15 17 14 14 13 11 10 13 16 15 12 10 2 1 8 12 13 12 11 9
5 9 9 6 5 8 13 13 10 10 14 11 8 8 8 6 5 8 10 12 13 15 16 15 16 16 14 16 14 12 13 14 16 14 9 7 7 12 12 12 12 14 13
4 7 8 7 8 9 10 13 12 16 13 12 16 17 16 16 15 16 16 16 15 15 15 15 15 14 15 14 17 16 16 18 18 17 11 13 11 14 15 14 15 17 17
7 10 11 12 13 14 14 15 15 15 19 20 20 19 22 23 24 23 22 26 24 22 19 17 13 17 15 16 17 19 19 22 22 17 16 19 19 19 17 16 20 20 21
8 10 14 17 19 21 23 24 23 22 22 23 24 27 27 27 27 28 30 31 30 27 27 26 21 20 19 20 16 19 24 25 28 20 22 23 25 25 23 21 22 22 22
8 11 15 18 21 24 26 28 29 28 28 28 28 30 33 32 32 29 32 33 33 33 33 32 30 30 26 22 24 27 30 32 33 27 27 29 30 30 29 27 25 22 31
10 13 15 19 22 25 28 31 32 32 32 31 30 31 33 35 35 35 35 39 37 36 39 39 36 34 33 32 30 30 31 33 33 29 32 30 35 33 35 33 31 28 32
10 13 15 17 20 22 25 28 30 32 33 33 32 30 30 32 34 33 35 38 39 37 35 35 40 37 34 34 35 38 40 41 39 35 39 37 37 36 38 39 37 34 34
13 15 16 18 20 21 22 23 24 25 26 27 29 28 27 29 30 33 36 39 41 40 38 36 34 35 38 38 38 39 40 38 33 34 37 42 43 42 40 43 42 40 39
10 12 14 16 17 18 17 18 17 17 17 18 20 22 23 24 24 26 29 32 36 38 38 39 38 36 34 36 36 37 44 40 40 37 38 47 45 46 46 44 47 46 45
6 10 12 14 15 15 15 16 15 15 14 14 14 14 14 16 19 21 23 25 27 28 31 36 39 38 43 44 46 43 46 43 43 48 45 49 43 42 46 48 48 50 50
2 4 5 7 9 11 13 15 17 18 19 20 21 19 17 15 14 15 16 19 21 23 25 26 28 33 37 36 38 38 41 42 46 49 50 50 48 44 45 47 51 53 54
1 5 7 10 11 13 15 18 19 21 23 25 25 26 25 24 24 23 21 20 20 20 21 22 25 28 30 33 37 37 38 35 35 40 49 53 54 50 51 48 49 54 60
4 6 10 12 15 17 18 20 22 23 25 25 26 28 27 27 28 28 27 27 26 26 27 26 26 25 24 27 32 36 38 39 39 37 37 36 37 41 38 43 47 54 58
12 12 13 16 19 20 23 25 27 28 28 30 32 32 32 32 32 31 30 30 30 29 28 27 26 25 25 25 25 24 28 32 33 33 34 39 39 36 36 44 42 38 46
17 17 17 18 18 20 23 24 26 27 28 31 32 34 35 36 36 37 38 38 39 37 36 35 34 32 31 29 26 24 19 17 16 17 17 23 30 37 35 40 40 45 47
19 17 16 16 16 17 20 21 22 23 24 27 28 30 31 33 34 36 37 39 40 41 43 44 45 44 42 38 30 19 15 11 9 17 17 20 25 31 35 35 38 42 47
20 17 15 14 14 15 15 17 18 19 22 23 25 27 28 30 32 33 34 35 36 38 39 40 42 44 48 47 38 26 11 6 17 31 21 23 28 32 35 37 40 42 45
22 19 16 13 12 13 12 13 16 18 21 22 23 24 26 28 30 33 34 36 38 40 43 45 46 48 49 52 49 34 19 8 21 14 26 39 41 40 39 39 40 42 44
27 23 19 16 14 13 12 13 16 18 20 21 23 24 27 30 32 35 37 39 41 43 44 47 50 52 53 58 57 28 20 11 43 20 24 41 56 51 48 50 46 45 48
31 26 22 18 16 13 12 14 16 17 20 21 22 25 28 30 32 34 36 38 40 43 46 49 50 51 49 49 51 37 17 15 42 17 31 43 62 60 59 53 53 56 51
35 31 26 21 17 14 11 12 13 14 16 18 22 25 26 28 30 32 34 36 39 40 41 44 45 46 45 45 41 39 29 26 19 27 30 32 66 65 67 56 65 56 64
40 34 29 25 20 15 11 9 10 14 17 19 21 23 24 26 28 31 33 35 36 39 40 40 41 41 40 39 39 37 34 30 21 26 40 60 57 55 64 53 63 59 72
43 40 35 30 24 19 12 7 7 11 15 17 18 20 23 26 28 31 33 34 36 37 38 38 38 37 37 35 34 33 33 30 33 29 45 56 64 64 51 53 62 63 73
Wind_Direction_850mb
12 21 50 89 70 71 66 97 121 115 93 78 58 32 17 21 29 309 302 306 308 309 304 313 297 308 326 332 352 8 16 22 28 32 45 60 48 46 52 41 72 48 13
14 22 35 58 63 32 10 11 232 186 154 110 78 323 326 324 308 290 276 280 288 289 290 298 312 288 300 309 326 343 3 12 15 22 32 50 85 331 335 323 331 323 327
356 0 13 25 46 334 324 327 258 246 227 210 231 296 297 300 299 300 296 285 277 274 274 286 302 312 280 281 287 305 342 356 357 1 4 85 205 315 308 305 311 318 315
0 1 355 342 325 304 287 277 273 282 253 251 269 276 285 273 268 274 283 291 290 289 286 272 271 291 293 274 271 276 305 329 337 336 331 316 302 325 321 324 317 326 322
347 350 351 346 336 336 331 316 302 265 267 279 259 262 268 270 270 269 271 278 284 287 287 291 283 276 289 272 271 268 285 309 317 317 301 291 295 307 318 316 311 311 318
333 330 325 319 314 312 306 305 306 301 271 263 271 273 268 267 269 271 274 280 279 274 279 277 277 286 273 276 266 261 274 293 302 302 281 279 288 289 305 302 303 296 308
332 325 318 314 309 305 302 299 295 291 287 279 269 265 268 271 269 269 270 270 274 279 277 273 261 263 265 264 273 266 275 283 293 277 280 281 280 285 291 295 296 294 295
344 332 326 318 311 305 299 296 293 290 284 280 276 272 270 265 268 273 274 277 278 278 280 278 272 264 263 261 254 262 270 280 286 279 276 284 285 280 280 284 287 284 286
346 339 331 326 323 316 307 301 296 293 289 285 279 275 275 273 270 267 272 277 282 285 283 276 273 269 266 263 261 255 258 269 274 268 273 277 287 289 277 276 279 283 277
331 331 330 329 326 322 317 310 305 298 293 289 286 282 278 274 274 271 269 273 277 283 286 289 276 270 269 268 267 264 263 262 265 270 272 275 280 287 280 274 276 278 281
324 330 336 336 335 332 328 322 316 309 301 294 291 288 282 280 276 272 271 271 274 276 280 285 288 282 271 270 272 273 275 276 273 270 269 271 280 282 282 272 271 275 276
310 323 333 339 342 344 343 341 337 329 319 310 304 295 290 288 286 284 283 279 274 274 278 277 276 280 280 278 278 280 272 271 275 273 274 277 287 284 279 276 270 272 274
306 329 336 342 349 353 358 6 10 14 12 1 349 338 326 311 300 291 287 283 284 284 279 270 270 274 275 278 279 279 277 279 277 275 277 284 285 285 285 280 275 272 274
318 335 1 15 19 23 30 35 37 38 39 38 37 32 26 13 360 342 328 317 308 302 297 293 287 279 273 275 273 276 276 276 271 273 275 282 283 287 285 283 279 276 276
56 73 70 66 61 56 52 55 53 52 50 50 47 46 43 41 38 33 25 14 3 352 339 322 307 297 292 286 281 279 276 277 276 274 272 271 273 272 272 275 279 275 274
119 100 86 80 74 67 65 62 59 56 53 50 47 45 42 40 40 39 38 35 30 23 16 7 356 345 331 312 296 291 287 280 279 279 279 280 279 274 279 278 277 275 275
143 121 107 94 83 79 75 70 67 63 60 58 55 52 50 48 46 42 38 34 28 22 16 11 7 3 357 348 336 323 303 289 282 278 277 279 278 279 281 272 267 280 284
137 128 119 107 95 83 76 71 67 63 59 56 53 50 47 45 44 43 41 39 36 33 29 27 22 17 9 357 347 346 339 323 312 300 296 289 286 281 280 279 283 281 272
149 137 124 114 103 91 80 73 68 63 60 56 52 48 44 41 39 37 36 34 31 30 27 24 22 20 20 19 12 356 348 343 12 359 333 318 310 303 297 291 284 282 283
161 147 135 123 112 98 85 76 70 63 59 55 50 46 40 37 34 33 31 30 29 28 27 26 23 21 18 17 19 17 22 13 27 354 356 349 344 336 327 321 311 302 292
173 163 150 134 121 103 91 78 68 60 56 50 47 41 36 33 30 27 25 24 23 22 21 20 20 18 15 17 19 33 28 94 350 5 9 4 360 354 349 346 343 336 323
184 177 166 154 139 123 109 89 69 57 50 45 42 37 33 29 25 23 21 21 20 19 18 17 18 19 18 17 21 15 2 359 343 26 6 7 4 3 360 357 352 346 341
191 185 177 168 155 139 115 84 65 52 45 42 38 33 30 26 23 21 19 19 18 17 17 16 16 17 18 18 20 30 1 342 342 329 346 353 357 2 3 1 359 354 350
196 192 187 180 170 151 121 92 74 62 51 44 38 33 29 25 23 20 18 17 16 16 15 15 13 13 13 14 16 20 14 357 344 325 328 341 346 354 359 359 1 0 354
201 198 195 190 182 168 143 109 71 51 42 37 34 29 24 22 19 16 14 13 13 14 13 12 12 12 11 11 10 8 4 2 346 325 325 329 338 346 347 353 359 354 353
205 203 202 198 192 184 168 137 83 48 35 31 25 20 16 13 11 10 9 9 9 8 8 7 7 6 6 6 4 2 360 357 341 340 323 328 330 336 348 337 348 349 348